EW1268 Weather Reports


Display with metric or nautical units.
time (UTC)temp
F
wind
direction
speed
MPH
gust
MPH
rain 1hr
in
rain 24hr
in
rain mn
in
humidity
%
barometer
mb
20260903162016 89 93 1.0 6.0 0.00 0.00 0.00 81 1014.4
20260903161530 89 298 2.0 6.0 0.00 0.00 0.00 80 1014.5
20260903161018 89 306 2.0 8.0 0.00 0.00 0.00 80 1014.5
20260903160517 89 319 2.0 8.0 0.00 0.00 0.00 81 1014.5
20260903160037 88 211 1.0 5.0 0.00 0.00 0.00 84 1014.5
20260903155514 88 178 2.0 8.0 0.00 0.00 0.00 83 1014.5
20260903155017 88 309 2.0 8.0 0.00 0.00 0.00 83 1014.3
20260903154529 88 236 2.0 6.0 0.00 0.00 0.00 83 1014.3
20260903154022 87 275 2.0 6.0 0.00 0.00 0.00 83 1014.3
20260903153522 88 271 2.0 6.0 0.00 0.00 0.00 84 1014.4
20260903153035 88 144 1.0 9.0 0.00 0.00 0.00 84 1014.4
20260903152510 88 209 4.0 9.0 0.00 0.00 0.00 84 1014.4
20260903152014 88 196 4.0 9.0 0.00 0.00 0.00 84 1014.4
20260903151528 87 86 2.0 9.0 0.00 0.00 0.00 85 1014.5
20260903151013 87 207 3.0 9.0 0.00 0.00 0.00 85 1014.5
20260903150517 87 150 3.0 9.0 0.00 0.00 0.00 85 1014.5
20260903150011 87 221 3.0 12.0 0.00 0.00 0.00 86 1014.6
20260903145508 86 163 3.0 12.0 0.00 0.00 0.00 86 1014.6
20260903145008 86 171 4.0 13.0 0.00 0.00 0.00 87 1014.5
20260903144521 86 155 3.0 13.0 0.00 0.00 0.00 87 1014.7
20260903144012 85 148 2.0 7.0 0.00 0.00 0.00 88 1014.7
20260903143514 85 155 2.0 8.0 0.00 0.00 0.00 88 1014.6
20260903143027 85 182 4.0 8.0 0.00 0.00 0.00 88 1014.6
20260903142518 84 173 3.0 8.0 0.00 0.00 0.00 88 1014.6
20260903142006 84 178 2.0 8.0 0.00 0.00 0.00 89 1014.5
20260903141513 84 191 3.0 7.0 0.00 0.00 0.00 89 1014.5
20260903141013 84 221 3.0 7.0 0.00 0.00 0.00 90 1014.4
20260903140511 83 175 2.0 6.0 0.00 0.00 0.00 90 1014.4
20260903140037 83 171 2.0 7.0 0.00 0.00 0.00 91 1014.5
20260903135515 83 178 2.0 7.0 0.00 0.00 0.00 91 1014.5
20260903135020 82 254 1.0 8.0 0.00 0.00 0.00 91 1014.5
20260903134533 82 205 3.0 8.0 0.00 0.00 0.00 91 1014.5
20260903134006 82 183 2.0 6.0 0.00 0.00 0.00 91 1014.5
20260903133510 82 155 3.0 6.0 0.00 0.00 0.00 92 1014.5
20260903133016 81 119 1.0 6.0 0.00 0.00 0.00 92 1014.4
20260903132512 81 161 2.0 6.0 0.00 0.00 0.00 91 1014.5
20260903132014 81 178 2.0 4.0 0.00 0.00 0.00 91 1014.4
20260903131526 81 132 1.0 4.0 0.00 0.00 0.00 91 1014.4
20260903131014 81 163 1.0 4.0 0.00 0.00 0.00 91 1014.4
20260903130518 81 93 1.0 4.0 0.00 0.00 0.00 91 1014.3
20260903130010 81 155 1.0 5.0 0.00 0.00 0.00 91 1014.3
20260903125507 81 178 1.0 5.0 0.00 0.00 0.00 91 1014.2
20260903125009 81 238 1.0 4.0 0.00 0.00 0.00 91 1014.1
20260903124521 80 146 1.0 5.0 0.00 0.00 0.00 91 1014.0
20260903124014 80 178 1.0 7.0 0.00 0.00 0.00 91 1013.9
20260903123516 80 170 2.0 7.0 0.00 0.00 0.00 90 1013.8
20260903123036 80 163 1.0 5.0 0.00 0.00 0.00 90 1013.7
20260903122520 80 157 2.0 6.0 0.00 0.00 0.00 90 1013.7
20260903122020 80 178 2.0 8.0 0.00 0.00 0.00 90 1013.7
20260903121515 81 196 0.0 9.0 0.00 0.00 0.00 90 1013.6
20260903121015 81 178 1.0 9.0 0.00 0.00 0.00 90 1013.5
20260903120515 81 165 3.0 9.0 0.00 0.00 0.00 90 1013.4
20260903120025 80 184 4.0 7.0 0.00 0.00 0.00 89 1013.4
20260903115514 80 178 2.0 7.0 0.00 0.00 0.00 89 1013.5
20260903115016 80 178 3.0 6.0 0.00 0.00 0.00 89 1013.6
20260903114548 80 163 2.0 8.0 0.00 0.00 0.00 88 1013.6
20260903114018 80 137 3.0 8.0 0.00 0.00 0.00 88 1013.6
20260903113510 80 163 2.0 7.0 0.00 0.00 0.00 88 1013.6
20260903113023 80 218 4.0 8.0 0.00 0.00 0.00 88 1013.6
20260903112519 80 153 3.0 9.0 0.00 0.00 0.00 89 1013.6
20260903112013 81 236 4.0 10.0 0.00 0.00 0.00 89 1013.5
20260903111529 81 191 4.0 10.0 0.00 0.00 0.00 89 1013.5
20260903111019 81 173 4.0 10.0 0.00 0.00 0.00 89 1013.6
20260903110519 82 184 4.0 10.0 0.00 0.00 0.00 89 1013.5
20260903110035 82 165 2.0 8.0 0.00 0.00 0.00 89 1013.6
20260903105512 82 190 3.0 8.0 0.00 0.00 0.00 89 1013.5
20260903105012 82 189 3.0 7.0 0.00 0.00 0.00 89 1013.5
20260903104524 82 209 2.0 9.0 0.00 0.00 0.00 89 1013.5
20260903104012 82 194 3.0 9.0 0.00 0.00 0.00 89 1013.4
20260903103516 82 169 4.0 9.0 0.00 0.00 0.00 89 1013.3
20260903103032 82 221 3.0 7.0 0.00 0.00 0.00 89 1013.3
20260903102521 82 196 3.0 7.0 0.00 0.00 0.00 89 1013.2
20260903102022 82 178 3.0 8.0 0.00 0.00 0.00 88 1013.2
20260903101516 82 178 3.0 8.0 0.00 0.00 0.00 89 1013.3
20260903101011 82 93 2.0 8.0 0.00 0.00 0.00 88 1013.3
20260903100512 82 194 3.0 8.0 0.00 0.00 0.00 88 1013.4
20260903100031 82 170 3.0 8.0 0.00 0.00 0.00 89 1013.3
20260903095514 82 175 3.0 8.0 0.00 0.00 0.00 89 1013.3
20260903095015 82 157 3.0 8.0 0.00 0.00 0.00 89 1013.3
20260903094515 82 144 3.0 6.0 0.00 0.00 0.00 89 1013.4
20260903094011 82 232 3.0 10.0 0.00 0.00 0.00 89 1013.3
20260903093512 82 160 3.0 10.0 0.00 0.00 0.00 89 1013.3
20260903093033 82 221 4.0 10.0 0.00 0.00 0.00 89 1013.4
20260903092510 82 157 4.0 9.0 0.00 0.00 0.00 89 1013.4
20260903092008 82 161 2.0 9.0 0.00 0.00 0.00 89 1013.3
20260903091512 82 196 4.0 9.0 0.00 0.00 0.00 89 1013.3
20260903091008 82 187 3.0 7.0 0.00 0.00 0.00 89 1013.3
20260903090512 82 166 3.0 8.0 0.00 0.00 0.00 89 1013.3
20260903090019 82 178 3.0 8.0 0.00 0.00 0.00 89 1013.3
20260903085510 82 245 3.0 8.0 0.00 0.00 0.00 89 1013.4
20260903085008 82 93 1.0 8.0 0.00 0.00 0.00 89 1013.3
20260903084528 82 192 3.0 9.0 0.00 0.00 0.00 89 1013.3
20260903084010 82 183 4.0 9.0 0.00 0.00 0.00 89 1013.2
20260903083508 82 150 2.0 8.0 0.00 0.00 0.00 89 1013.3
20260903083016 82 178 2.0 8.0 0.00 0.00 0.00 89 1013.2
20260903082512 82 183 3.0 9.0 0.00 0.00 0.00 89 1013.2
20260903082007 82 178 2.0 9.0 0.00 0.00 0.00 89 1013.2
20260903081516 82 188 4.0 9.0 0.00 0.00 0.00 89 1013.1
20260903081011 82 193 3.0 9.0 0.00 0.00 0.00 89 1013.0
20260903080508 82 279 3.0 10.0 0.00 0.00 0.00 89 1013.0
20260903080015 82 155 3.0 10.0 0.00 0.00 0.00 89 1013.0
20260903075511 82 211 4.0 10.0 0.00 0.00 0.00 89 1013.0
20260903075010 82 157 4.0 10.0 0.00 0.00 0.00 89 1013.1
20260903074517 82 187 5.0 10.0 0.00 0.00 0.00 89 1013.1
20260903074011 82 200 3.0 9.0 0.00 0.00 0.00 89 1013.1
20260903073512 82 166 4.0 9.0 0.00 0.00 0.00 89 1013.1
20260903073016 82 157 3.0 14.0 0.00 0.00 0.00 89 1013.1
20260903072511 82 178 4.0 14.0 0.00 0.00 0.00 89 1013.1
20260903072012 82 178 4.0 11.0 0.00 0.00 0.00 89 1013.2
20260903071520 82 196 5.0 11.0 0.00 0.00 0.00 89 1013.2
20260903071013 82 194 4.0 11.0 0.00 0.00 0.00 89 1013.3
20260903070508 82 165 3.0 9.0 0.00 0.00 0.00 89 1013.2
20260903070020 83 183 5.0 15.0 0.00 0.00 0.00 89 1013.4
20260903065508 83 221 6.0 15.0 0.00 0.00 0.00 89 1013.5
20260903065012 83 189 4.0 12.0 0.00 0.00 0.00 89 1013.5
20260903064519 83 178 3.0 12.0 0.00 0.00 0.00 89 1013.6
20260903064012 83 196 3.0 8.0 0.00 0.00 0.00 89 1013.8
20260903063513 83 168 3.0 7.0 0.00 0.00 0.00 89 1013.9
20260903063017 83 178 2.0 7.0 0.00 0.00 0.00 89 1013.9
20260903062512 83 178 2.0 6.0 0.00 0.00 0.00 89 1013.9
20260903062012 83 200 3.0 6.0 0.00 0.00 0.00 89 1013.9
20260903061519 83 144 2.0 11.0 0.00 0.00 0.00 89 1013.9
20260903061013 83 247 2.0 11.0 0.00 0.00 0.00 89 1013.8
20260903060512 83 190 3.0 8.0 0.00 0.00 0.00 88 1013.8
20260903060017 83 51 3.0 8.0 0.00 0.00 0.00 89 1013.9
20260903055513 83 178 2.0 7.0 0.00 0.00 0.00 88 1014.0
20260903055016 83 168 1.0 7.0 0.00 0.00 0.00 88 1014.1
20260903054525 83 168 1.0 8.0 0.00 0.00 0.00 88 1014.2
20260903054010 83 184 3.0 9.0 0.00 0.00 0.00 88 1014.2
20260903053510 83 187 3.0 9.0 0.00 0.00 0.00 88 1014.2
20260903053018 83 165 3.0 7.0 0.00 0.00 0.00 88 1014.2
20260903052511 84 144 2.0 5.0 0.00 0.00 0.00 88 1014.3
20260903052015 84 171 1.0 6.0 0.00 0.00 0.00 88 1014.5
20260903051519 84 193 1.0 6.0 0.00 0.00 0.00 88 1014.6
20260903051011 84 157 2.0 6.0 0.00 0.00 0.00 88 1014.7
20260903050508 84 170 2.0 6.0 0.00 0.00 0.00 88 1014.8
20260903050017 84 198 2.0 6.0 0.00 0.00 0.00 88 1014.9
20260903045514 84 205 1.0 5.0 0.00 0.00 0.00 88 1014.9
20260903045012 84 193 2.0 5.0 0.00 0.00 0.00 88 1015.0
20260903044516 84 150 1.0 4.0 0.00 0.00 0.00 88 1014.9
20260903044013 84 178 1.0 4.0 0.00 0.00 0.00 88 1014.9
20260903043514 84 165 1.0 7.0 0.00 0.00 0.00 88 1014.8
20260903043017 84 153 2.0 7.0 0.00 0.00 0.00 88 1014.6
20260903042511 84 184 3.0 6.0 0.00 0.00 0.00 88 1014.7
20260903042013 84 140 2.0 7.0 0.00 0.00 0.00 87 1014.6
20260903041519 84 178 2.0 7.0 0.00 0.00 0.00 87 1014.6
20260903041013 84 126 2.0 9.0 0.00 0.00 0.00 87 1014.5
20260903040511 84 232 2.0 9.0 0.00 0.00 0.00 87 1014.5
20260903040018 84 182 2.0 10.0 0.00 0.00 0.00 87 1014.5
20260903035513 84 186 3.0 10.0 0.00 0.00 0.00 87 1014.3
20260903035010 84 168 4.0 10.0 0.00 0.00 0.00 87 1014.1
20260903034514 84 159 5.0 9.0 0.00 0.00 0.00 87 1014.1
20260903034008 84 145 3.0 9.0 0.00 0.00 0.00 87 1014.2
20260903033512 84 184 4.0 9.0 0.00 0.00 0.00 87 1014.1
20260903033030 84 161 5.0 9.0 0.00 0.00 0.00 87 1014.1
20260903032510 84 188 4.0 10.0 0.00 0.00 0.00 87 1014.1
20260903032014 84 108 2.0 10.0 0.00 0.00 0.00 87 1014.0
20260903031522 84 144 3.0 9.0 0.00 0.00 0.00 86 1013.8
20260903031014 84 209 5.0 9.0 0.00 0.00 0.00 86 1013.8
20260903030513 84 202 3.0 9.0 0.00 0.00 0.00 86 1013.8
20260903030019 84 161 3.0 8.0 0.00 0.00 0.00 85 1013.6
20260903025513 84 164 3.0 14.0 0.00 0.00 0.00 85 1013.5
20260903025012 84 205 3.0 14.0 0.00 0.00 0.00 85 1013.4
20260903024524 85 193 5.0 10.0 0.00 0.00 0.00 84 1013.3
20260903024011 85 145 3.0 10.0 0.00 0.00 0.00 84 1013.3
20260903023514 85 178 3.0 11.0 0.00 0.00 0.00 83 1013.3
20260903023023 85 157 4.0 11.0 0.00 0.00 0.00 82 1013.2
20260903022511 85 157 4.0 10.0 0.00 0.00 0.00 82 1013.2
20260903022011 85 178 4.0 13.0 0.00 0.00 0.00 81 1013.2
20260903021533 85 205 3.0 13.0 0.00 0.00 0.00 81 1013.2
20260903021014 85 196 3.0 14.0 0.00 0.00 0.00 80 1013.1
20260903020515 85 153 5.0 14.0 0.00 0.00 0.00 80 1013.1
20260903020026 86 178 4.0 14.0 0.00 0.00 0.00 79 1012.9
20260903015511 86 155 6.0 12.0 0.00 0.00 0.00 79 1012.7
20260903015011 86 170 5.0 11.0 0.00 0.00 0.00 78 1012.6
20260903014513 86 177 5.0 12.0 0.00 0.00 0.00 77 1012.5
20260903014013 86 167 5.0 13.0 0.00 0.00 0.00 76 1012.3
20260903013513 87 162 4.0 16.0 0.00 0.00 0.00 75 1012.4
20260903013024 87 157 7.0 16.0 0.00 0.00 0.00 75 1012.3
20260903012516 87 165 4.0 12.0 0.00 0.00 0.00 74 1012.3
20260903012016 87 178 6.0 19.0 0.00 0.00 0.00 74 1012.2
20260903011527 88 163 8.0 19.0 0.00 0.00 0.00 73 1012.3
20260903011011 88 168 6.0 14.0 0.00 0.00 0.00 72 1012.2
20260903010510 88 175 6.0 14.0 0.00 0.00 0.00 72 1012.1
20260903010021 88 238 4.0 14.0 0.00 0.00 0.00 71 1011.9
20260903005515 89 178 6.0 14.0 0.00 0.00 0.00 70 1011.9
20260903005012 89 155 6.0 15.0 0.00 0.00 0.00 69 1011.8
20260903004534 89 163 6.0 16.0 0.00 0.00 0.00 68 1011.9
20260903004012 89 182 8.0 16.0 0.00 0.00 0.00 67 1011.9
20260903003514 90 184 8.0 20.0 0.00 0.00 0.00 67 1011.8
20260903003026 90 173 8.0 21.0 0.00 0.00 0.00 66 1011.7
20260903002508 90 198 9.0 21.0 0.00 0.00 0.00 65 1011.6
20260903002014 90 180 5.0 14.0 0.00 0.00 0.00 66 1011.5
20260903001523 90 177 7.0 15.0 0.00 0.00 0.00 66 1011.3
20260903001015 91 187 5.0 15.0 0.00 0.00 0.00 66 1011.3
20260903000513 91 175 8.0 20.0 0.00 0.00 0.00 65 1011.4
20260903000027 91 213 9.0 20.0 0.00 0.00 0.00 65 1011.2
20260902235515 92 205 7.0 16.0 0.00 0.00 0.00 65 1011.2
20260902235016 92 190 7.0 16.0 0.00 0.00 0.00 64 1011.2
20260902234517 92 185 6.0 13.0 0.00 0.00 0.00 64 1011.1
20260902234010 92 178 5.0 13.0 0.00 0.00 0.00 63 1011.1
20260902233512 93 178 5.0 17.0 0.00 0.00 0.00 63 1011.2
20260902233028 93 161 7.0 17.0 0.00 0.00 0.00 63 1011.2
20260902232517 93 202 5.0 16.0 0.00 0.00 0.00 63 1011.1
20260902232014 94 182 7.0 19.0 0.00 0.00 0.00 63 1011.0
20260902231527 94 184 7.0 19.0 0.00 0.00 0.00 63 1011.0
20260902231014 94 196 7.0 16.0 0.00 0.00 0.00 64 1010.9
20260902230509 94 178 7.0 15.0 0.00 0.00 0.00 64 1011.0
20260902230021 95 178 7.0 13.0 0.00 0.00 0.00 63 1011.1
20260902225518 95 150 6.0 16.0 0.00 0.00 0.00 63 1011.1
20260902225016 95 188 6.0 16.0 0.00 0.00 0.00 63 1010.9
20260902224526 95 193 8.0 16.0 0.00 0.00 0.00 63 1011.0
20260902224014 95 196 8.0 16.0 0.00 0.00 0.00 62 1010.9
20260902223515 96 165 5.0 16.0 0.00 0.00 0.00 61 1011.0
20260902223028 96 196 7.0 16.0 0.00 0.00 0.00 61 1011.0
20260902222512 96 214 5.0 14.0 0.00 0.00 0.00 61 1011.0
20260902222013 97 169 7.0 13.0 0.00 0.00 0.00 60 1011.1
20260902221526 97 159 7.0 15.0 0.00 0.00 0.00 59 1011.1
20260902221015 98 202 6.0 15.0 0.00 0.00 0.00 57 1011.1
20260902220519 98 199 7.0 14.0 0.00 0.00 0.00 57 1011.1
20260902220027 98 199 6.0 14.0 0.00 0.00 0.00 56 1011.0
20260902215520 99 182 6.0 15.0 0.00 0.00 0.00 56 1011.0
20260902215016 99 146 7.0 15.0 0.00 0.00 0.00 55 1011.1
20260902214526 99 198 7.0 14.0 0.00 0.00 0.00 56 1011.1
20260902214012 99 189 7.0 16.0 0.00 0.00 0.00 57 1011.2
20260902213514 99 193 6.0 16.0 0.00 0.00 0.00 57 1011.1
20260902213031 99 182 5.0 13.0 0.00 0.00 0.00 57 1011.1
20260902212514 99 162 6.0 13.0 0.00 0.00 0.00 56 1011.2
20260902212013 99 170 5.0 11.0 0.00 0.00 0.00 56 1011.2
20260902211526 99 171 5.0 10.0 0.00 0.00 0.00 56 1011.4
20260902211017 99 193 5.0 13.0 0.00 0.00 0.00 55 1011.4
20260902210511 99 157 5.0 15.0 0.00 0.00 0.00 56 1011.4
20260902210039 100 238 4.0 15.0 0.00 0.00 0.00 56 1011.4
20260902205517 99 135 5.0 11.0 0.00 0.00 0.00 56 1011.4
20260902205017 99 162 3.0 13.0 0.00 0.00 0.00 57 1011.5
20260902204531 98 221 5.0 13.0 0.00 0.00 0.00 58 1011.7
20260902204018 98 173 3.0 14.0 0.00 0.00 0.00 56 1011.8
20260902203514 98 183 5.0 15.0 0.00 0.00 0.00 56 1011.8
20260902203029 99 191 7.0 17.0 0.00 0.00 0.00 56 1011.9
20260902202515 99 164 4.0 17.0 0.00 0.00 0.00 58 1011.9
20260902202012 98 211 3.0 13.0 0.00 0.00 0.00 59 1011.8
20260902201535 99 167 5.0 13.0 0.00 0.00 0.00 57 1011.9
20260902201021 99 134 5.0 13.0 0.00 0.00 0.00 58 1012.0
20260902200515 99 302 4.0 11.0 0.00 0.00 0.00 57 1012.1
20260902200033 99 183 4.0 11.0 0.00 0.00 0.00 57 1012.1
20260902195514 98 325 2.0 11.0 0.00 0.00 0.00 57 1012.2
20260902195015 98 155 3.0 11.0 0.00 0.00 0.00 55 1012.4
20260902194537 99 231 4.0 11.0 0.00 0.00 0.00 59 1012.5
20260902194015 99 168 4.0 11.0 0.00 0.00 0.00 56 1012.6
20260902193514 99 163 3.0 10.0 0.00 0.00 0.00 58 1012.7
20260902193004 99 211 1.0 10.0 0.00 0.00 0.00 58 1012.8
20260902192510 99 185 4.0 13.0 0.00 0.00 0.00 57 1012.9
20260902192008 99 202 5.0 13.0 0.00 0.00 0.00 59 1012.9
20260902191515 98 312 4.0 14.0 0.00 0.00 0.00 57 1013.0
20260902191011 99 273 3.0 14.0 0.00 0.00 0.00 60 1013.0
20260902190510 98 178 3.0 11.0 0.00 0.00 0.00 60 1013.0
20260902190025 98 193 3.0 11.0 0.00 0.00 0.00 61 1013.1
20260902185515 98 225 4.0 9.0 0.00 0.00 0.00 60 1013.2
20260902185003 98 306 4.0 8.0 0.00 0.00 0.00 59 1013.3
20260902184507 98 196 2.0 10.0 0.00 0.00 0.00 63 1013.5
20260902184006 97 170 3.0 13.0 0.00 0.00 0.00 63 1013.5
20260902183507 97 268 2.0 13.0 0.00 0.00 0.00 64 1013.7
20260902183019 96 213 2.0 12.0 0.00 0.00 0.00 64 1013.7
20260902182511 96 192 5.0 12.0 0.00 0.00 0.00 65 1013.8
20260902182012 95 245 3.0 13.0 0.00 0.00 0.00 63 1013.9
20260902181527 96 273 3.0 13.0 0.00 0.00 0.00 65 1014.0
20260902181014 96 250 4.0 10.0 0.00 0.00 0.00 65 1014.0
20260902180503 96 232 3.0 16.0 0.00 0.00 0.00 64 1014.2
20260902180010 96 194 4.0 16.0 0.00 0.00 0.00 67 1014.3
20260902175512 95 257 3.0 8.0 0.00 0.00 0.00 68 1014.3
20260902175010 95 178 3.0 14.0 0.00 0.00 0.00 68 1014.4
20260902174520 95 178 5.0 14.0 0.00 0.00 0.00 68 1014.6
20260902174011 94 63 3.0 11.0 0.00 0.00 0.00 68 1014.7
20260902173513 94 237 4.0 15.0 0.00 0.00 0.00 68 1014.7
20260902173034 93 207 4.0 15.0 0.00 0.00 0.00 71 1014.9
20260902172510 93 9 5.0 11.0 0.00 0.00 0.00 70 1015.0
20260902172008 92 282 4.0 12.0 0.00 0.00 0.00 72 1015.0
20260902171520 92 211 6.0 14.0 0.00 0.00 0.00 72 1015.2
20260902171009 91 280 3.0 14.0 0.00 0.00 0.00 72 1015.2
20260902170513 91 213 3.0 14.0 0.00 0.00 0.00 74 1015.2
20260902170025 91 137 4.0 14.0 0.00 0.00 0.00 74 1015.2
20260902165517 90 11 3.0 14.0 0.00 0.00 0.00 76 1015.2
20260902165016 90 328 3.0 10.0 0.00 0.00 0.00 77 1015.3
20260902164509 89 232 4.0 10.0 0.00 0.00 0.00 78 1015.4
20260902164009 89 248 4.0 10.0 0.00 0.00 0.00 77 1015.6
20260902163511 89 238 3.0 12.0 0.00 0.00 0.00 78 1015.6
20260902163019 88 219 4.0 12.0 0.00 0.00 0.00 80 1015.6
20260902162511 88 275 5.0 10.0 0.00 0.00 0.00 80 1015.6